User: anonymous
Location: Hickory_Viewmont
(35.7830°N, 81.3170°W)
Time: 11:51:09
(UTC-04:00)
Language:

Okean-O - Orbit

View from above orbital plane
View from above orbital plane
View from above satellite
View from above satellite

Ground track
Ground track

The orbit data is extracted from the following two-line orbital elements,

1 25860U 99039A   14272.49339416  .00001161  00000-0  17842-3 0  3769
2 25860 098.0564 235.8185 0002040 097.7412 013.2230 14.75416479817536
Epoch (UTC): 29 September 2014 11:50:29
Eccentricity: 0.0002040
inclination: 98.0564°
perigee height: 642 km
apogee height: 645 km
right ascension of ascending node: 235.8185°
argument of perigee: 97.7412°
revolutions per day: 14.75416479
mean anomaly at epoch: 13.2230°
orbit number at epoch: 81753

The dashed part of the orbit path shows where the satellite is in the earth's shadow,  

DLR